Time,TemperatureF,DewpointF,PressureIn,WindDirection,WindDirectionDegrees,WindSpeedMPH,WindSpeedGustMPH,Humidity,HourlyPrecipIn,Conditions,Clouds,dailyrainin,SolarRadiationWatts/m^2,SoftwareType,DateUTC
2013-10-04 00:01:00,31.9,31.4,30.07,North,-999,19.0,24.0,98,0.00,,,0.00,0.00,VWS V14.01,2013-10-04 06:01:00,
2013-10-04 00:06:00,31.9,31.4,30.08,North,-999,20.0,30.0,98,0.00,,,0.00,0.00,VWS V14.01,2013-10-04 06:06:00,
2013-10-04 00:11:00,31.9,31.4,30.08,North,-999,17.0,28.0,98,0.00,,,0.00,0.00,VWS V14.01,2013-10-04 06:11:00,
2013-10-04 00:16:00,31.9,31.4,30.08,North,-999,18.0,29.0,98,0.00,,,0.00,0.00,VWS V14.01,2013-10-04 06:16:00,
2013-10-04 00:21:00,31.9,31.4,30.08,North,-999,22.0,28.0,98,0.00,,,0.00,0.00,VWS V14.01,2013-10-04 06:21:00,
2013-10-04 00:26:00,31.9,31.4,30.07,North,-999,19.0,28.0,98,0.00,,,0.00,0.00,VWS V14.01,2013-10-04 06:26:00,
2013-10-04 00:31:00,31.8,31.3,30.07,North,-999,12.0,28.0,98,0.00,,,0.00,0.00,VWS V14.01,2013-10-04 06:31:00,
2013-10-04 00:36:00,31.8,31.3,30.07,North,-999,24.0,30.0,98,0.00,,,0.00,0.00,VWS V14.01,2013-10-04 06:36:00,
2013-10-04 00:41:00,31.8,31.3,30.07,North,-999,26.0,30.0,98,0.00,,,0.00,0.00,VWS V14.01,2013-10-04 06:41:00,
2013-10-04 00:46:00,31.7,31.2,30.08,North,-999,20.0,30.0,98,0.00,,,0.00,0.00,VWS V14.01,2013-10-04 06:46:00,
2013-10-04 00:51:00,31.7,31.2,30.08,North,-999,22.0,26.0,98,0.00,,,0.00,0.00,VWS V14.01,2013-10-04 06:51:00,
2013-10-04 00:56:00,31.7,31.2,30.08,North,-999,15.0,30.0,98,0.00,,,0.00,0.00,VWS V14.01,2013-10-04 06:56:00,
2013-10-04 01:01:00,31.7,31.2,30.08,North,-999,14.0,24.0,98,0.00,,,0.00,0.00,VWS V14.01,2013-10-04 07:01:00,
2013-10-04 01:06:00,31.7,31.2,30.08,North,-999,16.0,26.0,98,0.00,,,0.00,0.00,VWS V14.01,2013-10-04 07:06:00,
2013-10-04 01:11:00,31.7,31.2,30.08,North,-999,23.0,27.0,98,0.00,,,0.00,0.00,VWS V14.01,2013-10-04 07:11:00,
2013-10-04 01:16:00,31.7,31.2,30.09,North,-999,16.0,28.0,98,0.00,,,0.00,0.00,VWS V14.01,2013-10-04 07:16:00,
2013-10-04 01:21:00,31.6,31.1,30.09,North,-999,24.0,27.0,98,0.00,,,0.00,0.00,VWS V14.01,2013-10-04 07:21:00,
2013-10-04 01:26:00,31.6,31.1,30.09,North,-999,19.0,27.0,98,0.01,,,0.01,0.00,VWS V14.01,2013-10-04 07:26:00,
2013-10-04 01:31:00,31.5,31.0,30.09,North,-999,16.0,29.0,98,0.01,,,0.01,0.00,VWS V14.01,2013-10-04 07:31:00,
2013-10-04 01:36:00,31.5,31.0,30.09,North,-999,18.0,31.0,98,0.01,,,0.01,0.00,VWS V14.01,2013-10-04 07:36:00,
2013-10-04 01:41:00,31.5,31.0,30.10,North,-999,20.0,25.0,98,0.01,,,0.01,0.00,VWS V14.01,2013-10-04 07:41:00,
2013-10-04 01:46:00,31.4,30.9,30.10,North,-999,19.0,29.0,98,0.01,,,0.01,0.00,VWS V14.01,2013-10-04 07:46:00,
2013-10-04 01:51:00,31.4,30.9,30.09,North,-999,14.0,28.0,98,0.01,,,0.01,0.00,VWS V14.01,2013-10-04 07:51:00,
2013-10-04 01:56:00,31.3,30.8,30.10,North,-999,18.0,30.0,98,0.01,,,0.01,0.00,VWS V14.01,2013-10-04 07:56:00,
2013-10-04 02:01:00,31.3,30.8,30.10,North,-999,17.0,31.0,98,0.01,,,0.01,0.00,VWS V14.01,2013-10-04 08:01:00,
2013-10-04 02:06:00,31.3,30.8,30.10,North,-999,21.0,31.0,98,0.01,,,0.01,0.00,VWS V14.01,2013-10-04 08:06:00,
2013-10-04 02:11:00,31.2,30.7,30.10,North,-999,15.0,27.0,98,0.01,,,0.01,0.00,VWS V14.01,2013-10-04 08:11:00,
2013-10-04 02:16:00,31.3,30.8,30.11,North,-999,16.0,29.0,98,0.01,,,0.01,0.00,VWS V14.01,2013-10-04 08:16:00,
2013-10-04 02:21:00,31.2,30.7,30.11,North,-999,22.0,28.0,98,0.01,,,0.01,0.00,VWS V14.01,2013-10-04 08:21:00,
2013-10-04 02:26:00,31.2,30.7,30.11,North,-999,14.0,28.0,98,0.01,,,0.01,0.00,VWS V14.01,2013-10-04 08:26:00,
2013-10-04 02:31:00,31.2,30.7,30.11,North,-999,25.0,31.0,98,0.00,,,0.01,0.00,VWS V14.01,2013-10-04 08:31:00,
2013-10-04 02:36:00,31.2,30.7,30.11,North,-999,18.0,31.0,98,0.00,,,0.01,0.00,VWS V14.01,2013-10-04 08:36:00,
2013-10-04 02:41:00,31.2,30.7,30.11,North,-999,15.0,28.0,98,0.00,,,0.01,0.00,VWS V14.01,2013-10-04 08:41:00,
2013-10-04 02:46:00,31.2,30.7,30.12,North,-999,22.0,28.0,98,0.00,,,0.01,0.00,VWS V14.01,2013-10-04 08:46:00,
2013-10-04 02:51:00,31.2,30.7,30.11,North,-999,22.0,27.0,98,0.00,,,0.01,0.00,VWS V14.01,2013-10-04 08:51:00,
2013-10-04 02:56:00,31.2,30.7,30.11,North,-999,18.0,28.0,98,0.00,,,0.01,0.00,VWS V14.01,2013-10-04 08:56:00,
2013-10-04 03:01:00,31.1,30.6,30.12,North,-999,13.0,28.0,98,0.00,,,0.01,0.00,VWS V14.01,2013-10-04 09:01:00,
2013-10-04 03:06:00,31.1,30.6,30.11,North,-999,15.0,28.0,98,0.00,,,0.01,0.00,VWS V14.01,2013-10-04 09:06:00,
2013-10-04 03:11:00,31.1,30.6,30.11,North,-999,18.0,26.0,98,0.00,,,0.01,0.00,VWS V14.01,2013-10-04 09:11:00,
2013-10-04 03:16:00,31.1,30.6,30.13,North,-999,23.0,27.0,98,0.00,,,0.01,0.00,VWS V14.01,2013-10-04 09:16:00,
2013-10-04 03:21:00,31.1,30.6,30.13,North,-999,19.0,24.0,98,0.00,,,0.01,0.00,VWS V14.01,2013-10-04 09:21:00,
2013-10-04 03:26:00,31.0,30.5,30.13,North,-999,18.0,26.0,98,0.00,,,0.01,0.00,VWS V14.01,2013-10-04 09:26:00,
2013-10-04 03:31:00,31.0,30.5,30.13,North,-999,15.0,32.0,98,0.00,,,0.01,0.00,VWS V14.01,2013-10-04 09:31:00,
2013-10-04 03:36:00,31.0,30.5,30.13,North,-999,17.0,32.0,98,0.00,,,0.01,0.00,VWS V14.01,2013-10-04 09:36:00,
2013-10-04 03:41:00,31.0,30.5,30.13,North,-999,19.0,24.0,98,0.00,,,0.01,0.00,VWS V14.01,2013-10-04 09:41:00,
2013-10-04 03:46:00,31.0,30.5,30.13,North,-999,15.0,25.0,98,0.00,,,0.01,0.00,VWS V14.01,2013-10-04 09:46:00,
2013-10-04 03:50:00,31.0,30.5,30.14,North,-999,21.0,26.0,98,0.00,,,0.01,0.00,VWS V14.01,2013-10-04 09:50:00,
2013-10-04 03:55:00,30.9,30.4,30.14,North,-999,14.0,28.0,98,0.00,,,0.01,0.00,VWS V14.01,2013-10-04 09:55:00,
2013-10-04 04:00:00,30.9,30.4,30.14,North,-999,22.0,25.0,98,0.00,,,0.01,0.00,VWS V14.01,2013-10-04 10:00:00,
2013-10-04 04:05:00,30.8,30.0,30.14,North,-999,18.0,26.0,97,0.00,,,0.01,0.00,VWS V14.01,2013-10-04 10:05:00,
2013-10-04 04:10:00,30.8,30.0,30.14,North,-999,22.0,29.0,97,0.00,,,0.01,0.00,VWS V14.01,2013-10-04 10:10:00,
2013-10-04 04:15:00,30.8,30.0,30.14,North,-999,16.0,30.0,97,0.00,,,0.01,0.00,VWS V14.01,2013-10-04 10:15:00,
2013-10-04 04:20:00,30.6,29.9,30.14,North,-999,20.0,26.0,97,0.00,,,0.01,0.00,VWS V14.01,2013-10-04 10:20:00,
2013-10-04 04:25:00,30.5,30.0,30.15,North,-999,20.0,30.0,98,0.00,,,0.01,0.00,VWS V14.01,2013-10-04 10:25:00,
2013-10-04 04:30:00,30.4,29.9,30.15,North,-999,19.0,30.0,98,0.00,,,0.01,0.00,VWS V14.01,2013-10-04 10:30:00,
2013-10-04 04:35:00,30.3,29.8,30.15,North,-999,22.0,33.0,98,0.00,,,0.01,0.00,VWS V14.01,2013-10-04 10:35:00,
2013-10-04 04:40:00,30.2,29.7,30.15,North,-999,21.0,28.0,98,0.00,,,0.01,0.00,VWS V14.01,2013-10-04 10:40:00,
2013-10-04 04:45:00,30.2,29.5,30.15,North,-999,21.0,28.0,97,0.00,,,0.01,0.00,VWS V14.01,2013-10-04 10:45:00,
2013-10-04 04:50:00,30.2,29.5,30.16,North,-999,14.0,26.0,97,0.00,,,0.01,0.00,VWS V14.01,2013-10-04 10:50:00,
2013-10-04 04:55:00,30.2,29.5,30.16,North,-999,21.0,27.0,97,0.00,,,0.01,0.00,VWS V14.01,2013-10-04 10:55:00,
2013-10-04 05:00:00,30.2,29.5,30.16,North,-999,27.0,27.0,97,0.00,,,0.01,0.00,VWS V14.01,2013-10-04 11:00:00,
2013-10-04 05:06:00,30.1,29.4,30.16,North,-999,19.0,27.0,97,0.00,,,0.01,0.00,VWS V14.01,2013-10-04 11:06:00,
2013-10-04 05:11:00,30.0,29.2,30.16,North,-999,28.0,28.0,97,0.00,,,0.01,0.00,VWS V14.01,2013-10-04 11:11:00,
2013-10-04 05:15:00,29.9,29.1,30.16,North,-999,24.0,28.0,97,0.00,,,0.01,0.00,VWS V14.01,2013-10-04 11:15:00,
2013-10-04 05:20:00,29.8,29.0,30.16,North,-999,23.0,26.0,97,0.00,,,0.01,0.00,VWS V14.01,2013-10-04 11:20:00,
2013-10-04 05:25:00,29.8,29.0,30.16,North,-999,16.0,30.0,97,0.00,,,0.01,0.00,VWS V14.01,2013-10-04 11:25:00,
2013-10-04 05:30:00,29.7,29.0,30.17,North,-999,15.0,26.0,97,0.00,,,0.01,0.00,VWS V14.01,2013-10-04 11:30:00,
2013-10-04 05:35:00,29.7,29.0,30.17,North,-999,19.0,26.0,97,0.00,,,0.01,0.00,VWS V14.01,2013-10-04 11:35:00,
2013-10-04 05:40:00,29.7,29.0,30.17,North,-999,19.0,26.0,97,0.00,,,0.01,0.00,VWS V14.01,2013-10-04 11:40:00,
2013-10-04 05:45:00,29.7,29.0,30.17,North,-999,20.0,27.0,97,0.00,,,0.01,0.00,VWS V14.01,2013-10-04 11:45:00,
2013-10-04 05:50:00,29.7,29.0,30.17,North,-999,15.0,24.0,97,0.00,,,0.01,0.00,VWS V14.01,2013-10-04 11:50:00,
2013-10-04 05:55:00,29.7,29.0,30.17,North,-999,22.0,26.0,97,0.00,,,0.01,0.00,VWS V14.01,2013-10-04 11:55:00,
2013-10-04 06:00:00,29.7,29.0,30.17,North,-999,18.0,24.0,97,0.00,,,0.01,0.00,VWS V14.01,2013-10-04 12:00:00,
2013-10-04 06:05:00,29.7,29.0,30.17,North,-999,28.0,35.0,97,0.00,,,0.01,0.00,VWS V14.01,2013-10-04 12:05:00,
2013-10-04 06:10:00,29.8,29.0,30.17,North,-999,27.0,27.0,97,0.00,,,0.01,0.00,VWS V14.01,2013-10-04 12:10:00,
2013-10-04 06:15:00,29.8,29.0,30.17,North,-999,15.0,27.0,97,0.00,,,0.01,0.00,VWS V14.01,2013-10-04 12:15:00,
2013-10-04 06:20:00,29.9,29.1,30.17,North,-999,18.0,23.0,97,0.00,,,0.01,0.00,VWS V14.01,2013-10-04 12:20:00,
2013-10-04 06:25:00,29.9,29.1,30.17,North,-999,17.0,23.0,97,0.00,,,0.01,0.00,VWS V14.01,2013-10-04 12:25:00,
2013-10-04 06:30:00,29.9,29.1,30.18,North,-999,17.0,21.0,97,0.00,,,0.01,0.00,VWS V14.01,2013-10-04 12:30:00,
2013-10-04 06:35:00,29.9,29.1,30.19,North,-999,11.0,21.0,97,0.00,,,0.01,0.00,VWS V14.01,2013-10-04 12:35:00,
2013-10-04 06:40:00,30.0,29.2,30.19,North,-999,11.0,18.0,97,0.00,,,0.01,0.00,VWS V14.01,2013-10-04 12:40:00,
2013-10-04 06:45:00,30.1,29.4,30.19,North,-999,15.0,18.0,97,0.00,,,0.01,0.00,VWS V14.01,2013-10-04 12:45:00,
2013-10-04 06:50:00,30.1,29.4,30.19,North,-999,11.0,18.0,97,0.00,,,0.01,0.00,VWS V14.01,2013-10-04 12:50:00,
2013-10-04 06:55:00,30.0,29.2,30.19,North,-999,8.0,18.0,97,0.00,,,0.01,0.00,VWS V14.01,2013-10-04 12:55:00,
2013-10-04 07:00:00,30.0,29.2,30.20,North,-999,11.0,16.0,97,0.00,,,0.01,0.00,VWS V14.01,2013-10-04 13:00:00,
2013-10-04 07:05:00,29.9,29.1,30.20,North,-999,13.0,20.0,97,0.00,,,0.01,0.00,VWS V14.01,2013-10-04 13:05:00,
2013-10-04 07:10:00,29.9,29.1,30.20,North,-999,13.0,14.0,97,0.00,,,0.01,0.00,VWS V14.01,2013-10-04 13:10:00,
2013-10-04 07:15:00,29.9,29.1,30.20,North,-999,8.0,17.0,97,0.00,,,0.01,0.00,VWS V14.01,2013-10-04 13:15:00,
2013-10-04 07:20:00,29.9,29.1,30.20,North,-999,10.0,18.0,97,0.00,,,0.01,0.00,VWS V14.01,2013-10-04 13:20:00,
2013-10-04 07:25:00,29.8,29.0,30.21,North,-999,10.0,18.0,97,0.00,,,0.01,0.00,VWS V14.01,2013-10-04 13:25:00,
2013-10-04 07:30:00,29.8,29.0,30.20,North,-999,12.0,17.0,97,0.00,,,0.01,0.00,VWS V14.01,2013-10-04 13:30:00,
2013-10-04 07:35:00,29.8,29.0,30.20,North,-999,6.0,19.0,97,0.00,,,0.01,7.00,VWS V14.01,2013-10-04 13:35:00,
2013-10-04 07:40:00,29.8,29.0,30.20,North,-999,13.0,17.0,97,0.00,,,0.01,11.00,VWS V14.01,2013-10-04 13:40:00,
2013-10-04 07:45:00,29.9,29.1,30.21,North,-999,12.0,17.0,97,0.00,,,0.01,14.00,VWS V14.01,2013-10-04 13:45:00,
2013-10-04 07:50:00,30.0,29.2,30.21,North,-999,16.0,19.0,97,0.00,,,0.01,16.00,VWS V14.01,2013-10-04 13:50:00,
2013-10-04 07:55:00,30.1,29.4,30.21,North,-999,15.0,19.0,97,0.00,,,0.01,21.00,VWS V14.01,2013-10-04 13:55:00,
2013-10-04 08:00:00,30.1,29.4,30.21,North,-999,15.0,18.0,97,0.00,,,0.01,25.00,VWS V14.01,2013-10-04 14:00:00,
2013-10-04 08:05:00,30.1,29.4,30.21,North,-999,20.0,20.0,97,0.00,,,0.01,30.00,VWS V14.01,2013-10-04 14:05:00,
2013-10-04 08:10:00,30.2,29.5,30.21,North,-999,18.0,21.0,97,0.00,,,0.01,37.00,VWS V14.01,2013-10-04 14:10:00,
2013-10-04 08:15:00,30.3,29.5,30.21,North,-999,14.0,22.0,97,0.00,,,0.01,44.00,VWS V14.01,2013-10-04 14:15:00,
2013-10-04 08:20:00,30.3,29.5,30.22,North,-999,14.0,18.0,97,0.00,,,0.01,47.00,VWS V14.01,2013-10-04 14:20:00,
2013-10-04 08:25:00,30.4,29.6,30.22,North,-999,14.0,18.0,97,0.00,,,0.01,53.00,VWS V14.01,2013-10-04 14:25:00,
2013-10-04 08:30:00,30.5,29.8,30.22,North,-999,11.0,19.0,97,0.00,,,0.01,60.00,VWS V14.01,2013-10-04 14:30:00,
2013-10-04 08:35:00,30.6,29.9,30.22,North,-999,12.0,21.0,97,0.00,,,0.01,65.00,VWS V14.01,2013-10-04 14:35:00,
2013-10-04 08:40:00,30.7,30.0,30.23,North,-999,11.0,19.0,97,0.00,,,0.01,74.00,VWS V14.01,2013-10-04 14:40:00,
2013-10-04 08:45:00,30.7,30.0,30.23,North,-999,15.0,19.0,97,0.00,,,0.01,79.00,VWS V14.01,2013-10-04 14:45:00,
2013-10-04 08:50:00,30.8,30.0,30.23,North,-999,13.0,20.0,97,0.00,,,0.01,88.00,VWS V14.01,2013-10-04 14:50:00,
2013-10-04 08:55:00,30.8,30.0,30.23,North,-999,9.0,20.0,97,0.00,,,0.01,100.00,VWS V14.01,2013-10-04 14:55:00,
2013-10-04 09:00:00,30.8,30.0,30.23,North,-999,12.0,16.0,97,0.00,,,0.01,107.00,VWS V14.01,2013-10-04 15:00:00,
2013-10-04 09:05:00,30.9,30.1,30.23,North,-999,13.0,18.0,97,0.00,,,0.01,118.00,VWS V14.01,2013-10-04 15:05:00,
2013-10-04 09:10:00,31.0,30.2,30.24,North,-999,13.0,18.0,97,0.00,,,0.01,135.00,VWS V14.01,2013-10-04 15:10:00,
2013-10-04 09:15:00,31.0,30.2,30.24,North,-999,9.0,18.0,97,0.00,,,0.01,155.00,VWS V14.01,2013-10-04 15:15:00,
2013-10-04 09:17:00,31.0,30.2,30.24,North,-999,12.0,18.0,97,0.00,,,0.01,155.00,VWS V14.01,2013-10-04 15:17:00,
2013-10-04 09:22:00,31.1,30.4,30.24,North,-999,8.0,15.0,97,0.00,,,0.01,146.00,VWS V14.01,2013-10-04 15:22:00,
2013-10-04 09:27:00,31.2,30.5,30.24,North,-999,11.0,15.0,97,0.00,,,0.01,137.00,VWS V14.01,2013-10-04 15:27:00,
2013-10-04 09:32:00,31.3,30.5,30.24,North,-999,17.0,17.0,97,0.00,,,0.01,151.00,VWS V14.01,2013-10-04 15:32:00,
2013-10-04 09:37:00,31.4,30.6,30.25,North,-999,9.0,17.0,97,0.00,,,0.01,156.00,VWS V14.01,2013-10-04 15:37:00,
2013-10-04 09:42:00,31.4,30.6,30.25,North,-999,18.0,18.0,97,0.00,,,0.01,149.00,VWS V14.01,2013-10-04 15:42:00,
2013-10-04 09:47:00,31.5,30.5,30.25,North,-999,12.0,18.0,96,0.00,,,0.01,137.00,VWS V14.01,2013-10-04 15:47:00,
2013-10-04 09:52:00,31.5,30.5,30.25,North,-999,9.0,19.0,96,0.00,,,0.01,142.00,VWS V14.01,2013-10-04 15:52:00,
2013-10-04 09:56:00,31.5,30.5,30.25,North,-999,16.0,19.0,96,0.00,,,0.01,149.00,VWS V14.01,2013-10-04 15:56:00,
2013-10-04 10:01:00,31.6,30.6,30.25,North,-999,13.0,16.0,96,0.00,,,0.01,169.00,VWS V14.01,2013-10-04 16:01:00,
2013-10-04 10:06:00,31.6,30.6,30.25,North,-999,14.0,18.0,96,0.00,,,0.01,169.00,VWS V14.01,2013-10-04 16:06:00,
2013-10-04 10:11:00,31.6,30.6,30.25,North,-999,17.0,22.0,96,0.00,,,0.01,176.00,VWS V14.01,2013-10-04 16:11:00,
2013-10-04 10:16:00,31.6,30.6,30.25,North,-999,18.0,22.0,96,0.00,,,0.01,197.00,VWS V14.01,2013-10-04 16:16:00,
2013-10-04 10:21:00,31.6,30.6,30.25,North,-999,17.0,23.0,96,0.00,,,0.01,195.00,VWS V14.01,2013-10-04 16:21:00,
2013-10-04 10:26:00,31.7,30.7,30.25,North,-999,19.0,23.0,96,0.00,,,0.01,229.00,VWS V14.01,2013-10-04 16:26:00,
2013-10-04 10:31:00,31.7,30.7,30.25,North,-999,15.0,23.0,96,0.00,,,0.01,251.00,VWS V14.01,2013-10-04 16:31:00,
2013-10-04 10:36:00,31.7,30.7,30.25,North,-999,14.0,25.0,96,0.00,,,0.01,264.00,VWS V14.01,2013-10-04 16:36:00,
2013-10-04 10:41:00,31.7,30.7,30.25,North,-999,12.0,22.0,96,0.00,,,0.01,278.00,VWS V14.01,2013-10-04 16:41:00,
2013-10-04 10:46:00,31.7,30.7,30.25,North,-999,22.0,28.0,96,0.00,,,0.01,276.00,VWS V14.01,2013-10-04 16:46:00,
2013-10-04 10:51:00,31.7,30.7,30.25,North,-999,16.0,28.0,96,0.00,,,0.01,290.00,VWS V14.01,2013-10-04 16:51:00,
2013-10-04 10:56:00,31.7,30.7,30.25,North,-999,24.0,28.0,96,0.00,,,0.01,306.00,VWS V14.01,2013-10-04 16:56:00,
2013-10-04 11:01:00,31.7,30.7,30.25,North,-999,18.0,28.0,96,0.00,,,0.01,308.00,VWS V14.01,2013-10-04 17:01:00,
2013-10-04 11:06:00,31.7,30.7,30.25,North,-999,16.0,29.0,96,0.00,,,0.01,318.00,VWS V14.01,2013-10-04 17:06:00,
2013-10-04 11:11:00,31.7,30.7,30.25,North,-999,19.0,25.0,96,0.00,,,0.01,322.00,VWS V14.01,2013-10-04 17:11:00,
2013-10-04 11:16:00,31.8,30.8,30.25,North,-999,13.0,25.0,96,0.00,,,0.01,332.00,VWS V14.01,2013-10-04 17:16:00,
2013-10-04 11:21:00,31.8,30.8,30.26,North,-999,12.0,23.0,96,0.00,,,0.01,357.00,VWS V14.01,2013-10-04 17:21:00,
2013-10-04 11:26:00,31.8,30.8,30.26,North,-999,21.0,24.0,96,0.00,,,0.01,373.00,VWS V14.01,2013-10-04 17:26:00,
2013-10-04 11:31:00,31.9,30.9,30.26,North,-999,12.0,23.0,96,0.00,,,0.01,378.00,VWS V14.01,2013-10-04 17:31:00,
2013-10-04 11:36:00,31.9,30.9,30.26,North,-999,21.0,23.0,96,0.00,,,0.01,376.00,VWS V14.01,2013-10-04 17:36:00,
2013-10-04 12:01:00,32.1,31.1,30.26,North,-999,19.0,24.0,96,0.00,,,0.01,403.00,VWS V14.01,2013-10-04 18:01:00,
2013-10-04 12:06:00,32.1,30.8,30.26,North,-999,12.0,26.0,95,0.00,,,0.01,404.00,VWS V14.01,2013-10-04 18:06:00,
2013-10-04 12:11:00,32.2,30.9,30.26,North,-999,19.0,24.0,95,0.00,,,0.01,418.00,VWS V14.01,2013-10-04 18:11:00,
2013-10-04 12:16:00,32.3,31.0,30.26,North,-999,19.0,24.0,95,0.00,,,0.01,432.00,VWS V14.01,2013-10-04 18:16:00,
2013-10-04 12:21:00,32.3,31.0,30.26,North,-999,16.0,20.0,95,0.00,,,0.01,441.00,VWS V14.01,2013-10-04 18:21:00,
2013-10-04 12:26:00,32.4,31.1,30.26,North,-999,13.0,20.0,95,0.00,,,0.01,436.00,VWS V14.01,2013-10-04 18:26:00,
2013-10-04 12:31:00,32.4,31.1,30.26,North,-999,10.0,17.0,95,0.00,,,0.01,441.00,VWS V14.01,2013-10-04 18:31:00,
2013-10-04 12:36:00,32.5,31.2,30.27,North,-999,11.0,19.0,95,0.00,,,0.01,452.00,VWS V14.01,2013-10-04 18:36:00,
2013-10-04 12:41:00,32.7,31.4,30.27,North,-999,13.0,19.0,95,0.00,,,0.01,459.00,VWS V14.01,2013-10-04 18:41:00,
2013-10-04 12:46:00,32.8,31.5,30.27,North,-999,15.0,19.0,95,0.00,,,0.01,462.00,VWS V14.01,2013-10-04 18:46:00,
2013-10-04 12:51:00,32.8,31.5,30.27,North,-999,6.0,17.0,95,0.00,,,0.01,462.00,VWS V14.01,2013-10-04 18:51:00,
2013-10-04 12:56:00,33.0,31.7,30.26,North,-999,12.0,20.0,95,0.00,,,0.01,438.00,VWS V14.01,2013-10-04 18:56:00,
2013-10-04 13:01:00,33.1,31.8,30.26,North,-999,13.0,18.0,95,0.00,,,0.01,399.00,VWS V14.01,2013-10-04 19:01:00,
2013-10-04 13:06:00,33.2,31.9,30.26,North,-999,12.0,18.0,95,0.00,,,0.01,411.00,VWS V14.01,2013-10-04 19:06:00,
2013-10-04 13:11:00,33.2,31.9,30.26,North,-999,6.0,17.0,95,0.00,,,0.01,439.00,VWS V14.01,2013-10-04 19:11:00,
2013-10-04 13:16:00,33.3,32.0,30.25,North,-999,13.0,20.0,95,0.00,,,0.01,450.00,VWS V14.01,2013-10-04 19:16:00,
2013-10-04 13:21:00,33.3,32.0,30.26,North,-999,19.0,21.0,95,0.00,,,0.01,455.00,VWS V14.01,2013-10-04 19:21:00,
2013-10-04 13:26:00,33.3,32.0,30.25,North,-999,11.0,21.0,95,0.00,,,0.01,439.00,VWS V14.01,2013-10-04 19:26:00,
2013-10-04 13:31:00,33.4,32.1,30.25,North,-999,9.0,19.0,95,0.00,,,0.01,434.00,VWS V14.01,2013-10-04 19:31:00,
2013-10-04 13:36:00,33.5,32.2,30.25,North,-999,14.0,19.0,95,0.00,,,0.01,420.00,VWS V14.01,2013-10-04 19:36:00,
2013-10-04 13:41:00,33.5,32.2,30.25,North,-999,14.0,21.0,95,0.00,,,0.01,403.00,VWS V14.01,2013-10-04 19:41:00,
2013-10-04 13:46:00,33.5,32.2,30.25,North,-999,14.0,22.0,95,0.00,,,0.01,397.00,VWS V14.01,2013-10-04 19:46:00,
2013-10-04 13:51:00,33.5,32.2,30.24,North,-999,12.0,19.0,95,0.00,,,0.01,396.00,VWS V14.01,2013-10-04 19:51:00,
2013-10-04 13:56:00,33.6,32.3,30.24,North,-999,13.0,19.0,95,0.00,,,0.01,401.00,VWS V14.01,2013-10-04 19:56:00,
2013-10-04 14:01:00,33.7,32.4,30.24,North,-999,6.0,19.0,95,0.00,,,0.01,403.00,VWS V14.01,2013-10-04 20:01:00,
2013-10-04 14:06:00,33.9,32.6,30.25,North,-999,18.0,23.0,95,0.00,,,0.01,381.00,VWS V14.01,2013-10-04 20:06:00,
2013-10-04 14:11:00,33.9,32.6,30.24,North,-999,14.0,21.0,95,0.00,,,0.01,366.00,VWS V14.01,2013-10-04 20:11:00,
2013-10-04 14:16:00,33.9,32.6,30.24,North,-999,20.0,22.0,95,0.00,,,0.01,369.00,VWS V14.01,2013-10-04 20:16:00,
2013-10-04 14:21:00,34.0,32.7,30.24,North,-999,17.0,20.0,95,0.00,,,0.01,357.00,VWS V14.01,2013-10-04 20:21:00,
2013-10-04 14:26:00,33.9,32.6,30.24,North,-999,15.0,21.0,95,0.00,,,0.01,362.00,VWS V14.01,2013-10-04 20:26:00,
2013-10-04 14:31:00,34.0,32.7,30.24,North,-999,12.0,19.0,95,0.00,,,0.01,348.00,VWS V14.01,2013-10-04 20:31:00,
2013-10-04 14:36:00,34.0,32.7,30.25,North,-999,16.0,20.0,95,0.00,,,0.01,332.00,VWS V14.01,2013-10-04 20:36:00,
2013-10-04 14:41:00,34.0,32.7,30.25,North,-999,16.0,21.0,95,0.00,,,0.01,316.00,VWS V14.01,2013-10-04 20:41:00,
2013-10-04 14:46:00,34.0,32.7,30.25,North,-999,15.0,21.0,95,0.00,,,0.01,301.00,VWS V14.01,2013-10-04 20:46:00,
2013-10-04 14:51:00,34.1,32.8,30.25,North,-999,6.0,14.0,95,0.00,,,0.01,279.00,VWS V14.01,2013-10-04 20:51:00,
2013-10-04 14:56:00,34.2,32.7,30.25,North,-999,10.0,17.0,94,0.00,,,0.01,260.00,VWS V14.01,2013-10-04 20:56:00,
2013-10-04 15:01:00,34.2,32.7,30.25,North,-999,12.0,17.0,94,0.00,,,0.01,248.00,VWS V14.01,2013-10-04 21:01:00,
2013-10-04 15:06:00,34.2,32.7,30.25,North,-999,9.0,18.0,94,0.00,,,0.01,251.00,VWS V14.01,2013-10-04 21:06:00,
2013-10-04 15:11:00,34.1,32.6,30.25,North,-999,13.0,18.0,94,0.00,,,0.01,258.00,VWS V14.01,2013-10-04 21:11:00,
2013-10-04 15:16:00,34.2,32.7,30.25,North,-999,15.0,18.0,94,0.00,,,0.01,265.00,VWS V14.01,2013-10-04 21:16:00,
2013-10-04 15:21:00,34.4,32.9,30.25,North,-999,14.0,20.0,94,0.00,,,0.01,271.00,VWS V14.01,2013-10-04 21:21:00,
2013-10-04 15:26:00,34.4,32.9,30.25,North,-999,15.0,23.0,94,0.00,,,0.01,281.00,VWS V14.01,2013-10-04 21:26:00,
2013-10-04 15:31:00,34.6,33.0,30.25,North,-999,19.0,22.0,94,0.00,,,0.01,288.00,VWS V14.01,2013-10-04 21:31:00,
2013-10-04 15:36:00,34.7,33.2,30.25,North,-999,13.0,22.0,94,0.00,,,0.01,294.00,VWS V14.01,2013-10-04 21:36:00,
2013-10-04 15:41:00,34.8,33.2,30.24,North,-999,15.0,22.0,94,0.00,,,0.01,297.00,VWS V14.01,2013-10-04 21:41:00,
2013-10-04 15:46:00,35.0,33.2,30.24,North,-999,14.0,22.0,93,0.00,,,0.01,297.00,VWS V14.01,2013-10-04 21:46:00,
2013-10-04 15:51:00,35.0,33.2,30.25,North,-999,19.0,23.0,93,0.00,,,0.01,302.00,VWS V14.01,2013-10-04 21:51:00,
2013-10-04 15:56:00,35.1,33.3,30.25,North,-999,13.0,23.0,93,0.00,,,0.01,274.00,VWS V14.01,2013-10-04 21:56:00,
2013-10-04 16:01:00,35.1,33.0,30.24,North,-999,14.0,24.0,92,0.00,,,0.01,267.00,VWS V14.01,2013-10-04 22:01:00,
2013-10-04 16:06:00,35.2,33.1,30.24,North,-999,15.0,24.0,92,0.00,,,0.01,248.00,VWS V14.01,2013-10-04 22:06:00,
2013-10-04 16:11:00,35.2,33.1,30.24,North,-999,7.0,20.0,92,0.00,,,0.01,236.00,VWS V14.01,2013-10-04 22:11:00,
2013-10-04 16:16:00,35.3,33.2,30.25,North,-999,6.0,20.0,92,0.00,,,0.01,234.00,VWS V14.01,2013-10-04 22:16:00,
2013-10-04 16:21:00,35.3,33.2,30.25,North,-999,14.0,19.0,92,0.00,,,0.01,223.00,VWS V14.01,2013-10-04 22:21:00,
2013-10-04 16:26:00,35.3,33.2,30.25,North,-999,9.0,22.0,92,0.00,,,0.01,206.00,VWS V14.01,2013-10-04 22:26:00,
2013-10-04 16:31:00,35.4,33.3,30.25,North,-999,15.0,16.0,92,0.00,,,0.01,195.00,VWS V14.01,2013-10-04 22:31:00,
2013-10-04 16:36:00,35.4,33.3,30.25,North,-999,11.0,17.0,92,0.00,,,0.01,185.00,VWS V14.01,2013-10-04 22:36:00,
2013-10-04 16:41:00,35.3,33.5,30.25,North,-999,11.0,18.0,93,0.00,,,0.01,169.00,VWS V14.01,2013-10-04 22:41:00,
2013-10-04 16:46:00,35.4,33.6,30.25,North,-999,12.0,18.0,93,0.00,,,0.01,149.00,VWS V14.01,2013-10-04 22:46:00,
2013-10-04 16:51:00,35.3,33.5,30.25,North,-999,6.0,16.0,93,0.00,,,0.01,137.00,VWS V14.01,2013-10-04 22:51:00,
2013-10-04 16:56:00,35.3,33.8,30.25,North,-999,4.0,16.0,94,0.00,,,0.01,132.00,VWS V14.01,2013-10-04 22:56:00,
2013-10-04 17:01:00,35.1,33.5,30.25,North,-999,6.0,9.0,94,0.00,,,0.01,127.00,VWS V14.01,2013-10-04 23:01:00,
2013-10-04 17:06:00,35.1,33.5,30.25,North,-999,5.0,11.0,94,0.00,,,0.01,128.00,VWS V14.01,2013-10-04 23:06:00,
2013-10-04 17:11:00,35.1,33.5,30.25,North,-999,0.0,8.0,94,0.00,,,0.01,125.00,VWS V14.01,2013-10-04 23:11:00,
2013-10-04 17:16:00,35.0,33.5,30.25,North,-999,5.0,10.0,94,0.00,,,0.01,123.00,VWS V14.01,2013-10-04 23:16:00,
2013-10-04 17:21:00,35.1,33.5,30.25,North,-999,4.0,9.0,94,0.00,,,0.01,121.00,VWS V14.01,2013-10-04 23:21:00,
2013-10-04 17:26:00,35.0,33.7,30.25,North,-999,5.0,9.0,95,0.00,,,0.01,123.00,VWS V14.01,2013-10-04 23:26:00,
2013-10-04 17:31:00,34.9,33.6,30.25,North,-999,11.0,12.0,95,0.00,,,0.01,113.00,VWS V14.01,2013-10-04 23:31:00,
2013-10-04 17:36:00,34.8,33.5,30.25,North,-999,5.0,14.0,95,0.00,,,0.01,102.00,VWS V14.01,2013-10-04 23:36:00,
2013-10-04 17:41:00,34.7,33.4,30.25,North,-999,7.0,11.0,95,0.00,,,0.01,95.00,VWS V14.01,2013-10-04 23:41:00,
2013-10-04 17:46:00,34.6,33.3,30.25,North,-999,8.0,11.0,95,0.00,,,0.01,88.00,VWS V14.01,2013-10-04 23:46:00,
2013-10-04 17:51:00,34.7,33.4,30.25,North,-999,6.0,10.0,95,0.00,,,0.01,91.00,VWS V14.01,2013-10-04 23:51:00,
2013-10-04 17:56:00,34.6,33.3,30.25,North,-999,8.0,10.0,95,0.00,,,0.01,63.00,VWS V14.01,2013-10-04 23:56:00,
2013-10-04 18:01:00,34.5,33.2,30.24,North,-999,4.0,9.0,95,0.00,,,0.01,49.00,VWS V14.01,2013-10-05 00:01:00,
2013-10-04 18:05:00,34.4,33.1,30.24,North,-999,4.0,9.0,95,0.00,,,0.01,39.00,VWS V14.01,2013-10-05 00:05:00,
2013-10-04 18:10:00,34.4,33.1,30.24,North,-999,6.0,7.0,95,0.00,,,0.01,35.00,VWS V14.01,2013-10-05 00:10:00,
2013-10-04 18:15:00,34.3,33.0,30.24,North,-999,5.0,7.0,95,0.00,,,0.01,33.00,VWS V14.01,2013-10-05 00:15:00,
2013-10-04 18:20:00,34.3,33.0,30.24,North,-999,1.0,8.0,95,0.00,,,0.01,33.00,VWS V14.01,2013-10-05 00:20:00,
2013-10-04 18:25:00,34.4,33.1,30.24,North,-999,6.0,8.0,95,0.00,,,0.01,32.00,VWS V14.01,2013-10-05 00:25:00,
2013-10-04 18:30:00,34.5,33.2,30.24,North,-999,6.0,6.0,95,0.00,,,0.01,28.00,VWS V14.01,2013-10-05 00:30:00,
2013-10-04 18:35:00,34.5,33.2,30.24,North,-999,0.0,6.0,95,0.00,,,0.01,21.00,VWS V14.01,2013-10-05 00:35:00,
2013-10-04 18:40:00,34.4,33.1,30.24,North,-999,0.0,0.0,95,0.00,,,0.01,14.00,VWS V14.01,2013-10-05 00:40:00,
2013-10-04 18:45:00,34.3,33.0,30.24,North,-999,0.0,0.0,95,0.00,,,0.01,12.00,VWS V14.01,2013-10-05 00:45:00,
2013-10-04 18:50:00,34.2,32.9,30.24,North,-999,0.0,6.0,95,0.00,,,0.01,9.00,VWS V14.01,2013-10-05 00:50:00,
2013-10-04 18:55:00,34.2,32.9,30.24,North,-999,0.0,6.0,95,0.00,,,0.01,0.00,VWS V14.01,2013-10-05 00:55:00,
2013-10-04 19:00:00,34.1,32.8,30.24,North,-999,0.0,0.0,95,0.00,,,0.01,0.00,VWS V14.01,2013-10-05 01:00:00,
2013-10-04 19:05:00,34.1,32.8,30.24,North,-999,0.0,0.0,95,0.00,,,0.01,0.00,VWS V14.01,2013-10-05 01:05:00,
2013-10-04 19:10:00,34.0,32.7,30.24,North,-999,0.0,0.0,95,0.00,,,0.01,0.00,VWS V14.01,2013-10-05 01:10:00,
2013-10-04 19:15:00,33.9,32.6,30.24,North,-999,0.0,0.0,95,0.00,,,0.01,0.00,VWS V14.01,2013-10-05 01:15:00,
2013-10-04 19:20:00,33.8,32.5,30.24,North,-999,0.0,0.0,95,0.00,,,0.01,0.00,VWS V14.01,2013-10-05 01:20:00,
2013-10-04 19:25:00,33.7,32.4,30.24,North,-999,4.0,7.0,95,0.00,,,0.01,0.00,VWS V14.01,2013-10-05 01:25:00,
2013-10-04 19:30:00,33.6,32.3,30.24,North,-999,6.0,9.0,95,0.00,,,0.01,0.00,VWS V14.01,2013-10-05 01:30:00,
2013-10-04 19:35:00,33.6,32.3,30.24,North,-999,6.0,12.0,95,0.00,,,0.01,0.00,VWS V14.01,2013-10-05 01:35:00,
2013-10-04 19:40:00,33.5,32.2,30.23,North,-999,6.0,11.0,95,0.00,,,0.01,0.00,VWS V14.01,2013-10-05 01:40:00,
2013-10-04 19:45:00,33.4,32.1,30.24,North,-999,10.0,12.0,95,0.00,,,0.01,0.00,VWS V14.01,2013-10-05 01:45:00,
2013-10-04 19:50:00,33.2,31.9,30.23,North,-999,10.0,12.0,95,0.00,,,0.01,0.00,VWS V14.01,2013-10-05 01:50:00,
2013-10-04 19:55:00,33.2,31.9,30.24,North,-999,10.0,15.0,95,0.00,,,0.01,0.00,VWS V14.01,2013-10-05 01:55:00,
2013-10-04 20:00:00,33.2,31.9,30.24,North,-999,11.0,13.0,95,0.00,,,0.01,0.00,VWS V14.01,2013-10-05 02:00:00,
2013-10-04 20:01:00,33.2,31.9,30.24,North,-999,8.0,13.0,95,0.00,,,0.01,0.00,VWS V14.01,2013-10-05 02:01:00,
2013-10-04 20:05:00,33.2,31.9,30.24,North,-999,10.0,13.0,95,0.00,,,0.01,0.00,VWS V14.01,2013-10-05 02:05:00,
2013-10-04 20:10:00,33.2,31.7,30.24,North,-999,7.0,12.0,94,0.00,,,0.01,0.00,VWS V14.01,2013-10-05 02:10:00,
2013-10-04 20:15:00,33.2,31.7,30.24,North,-999,6.0,12.0,94,0.00,,,0.01,0.00,VWS V14.01,2013-10-05 02:15:00,
2013-10-04 20:20:00,33.2,31.7,30.24,North,-999,10.0,10.0,94,0.00,,,0.01,0.00,VWS V14.01,2013-10-05 02:20:00,
2013-10-04 20:25:00,33.2,31.4,30.24,North,-999,9.0,10.0,93,0.00,,,0.01,0.00,VWS V14.01,2013-10-05 02:25:00,
2013-10-04 20:30:00,33.2,31.4,30.24,North,-999,10.0,11.0,93,0.00,,,0.01,0.00,VWS V14.01,2013-10-05 02:30:00,
2013-10-04 20:35:00,33.1,31.0,30.24,North,-999,9.0,13.0,92,0.00,,,0.01,0.00,VWS V14.01,2013-10-05 02:35:00,
2013-10-04 20:40:00,33.0,30.7,30.24,North,-999,7.0,11.0,91,0.00,,,0.01,0.00,VWS V14.01,2013-10-05 02:40:00,
2013-10-04 20:45:00,32.6,30.0,30.24,North,-999,10.0,11.0,90,0.00,,,0.01,0.00,VWS V14.01,2013-10-05 02:45:00,
2013-10-04 20:50:00,32.5,29.9,30.23,North,-999,7.0,12.0,90,0.00,,,0.01,0.00,VWS V14.01,2013-10-05 02:50:00,
2013-10-04 20:55:00,32.4,29.5,30.23,North,-999,8.0,13.0,89,0.00,,,0.01,0.00,VWS V14.01,2013-10-05 02:55:00,
2013-10-04 21:00:00,32.4,29.5,30.23,North,-999,11.0,13.0,89,0.00,,,0.01,0.00,VWS V14.01,2013-10-05 03:00:00,
2013-10-04 21:05:00,32.7,29.8,30.23,North,-999,6.0,13.0,89,0.00,,,0.01,0.00,VWS V14.01,2013-10-05 03:05:00,
2013-10-04 21:10:00,32.9,29.7,30.23,North,-999,9.0,12.0,88,0.00,,,0.01,0.00,VWS V14.01,2013-10-05 03:10:00,
2013-10-04 21:15:00,32.9,29.7,30.23,North,-999,6.0,12.0,88,0.00,,,0.01,0.00,VWS V14.01,2013-10-05 03:15:00,
2013-10-04 21:20:00,32.5,29.1,30.23,North,-999,5.0,10.0,87,0.00,,,0.01,0.00,VWS V14.01,2013-10-05 03:20:00,
2013-10-04 21:25:00,31.9,28.5,30.23,North,-999,5.0,10.0,87,0.00,,,0.01,0.00,VWS V14.01,2013-10-05 03:25:00,
2013-10-04 21:30:00,31.6,28.5,30.23,North,-999,5.0,7.0,88,0.00,,,0.01,0.00,VWS V14.01,2013-10-05 03:30:00,
2013-10-04 21:35:00,31.4,28.3,30.23,North,-999,4.0,7.0,88,0.00,,,0.01,0.00,VWS V14.01,2013-10-05 03:35:00,
2013-10-04 21:40:00,31.3,28.2,30.23,North,-999,5.0,6.0,88,0.00,,,0.01,0.00,VWS V14.01,2013-10-05 03:40:00,
2013-10-04 21:45:00,31.2,28.1,30.23,North,-999,5.0,7.0,88,0.00,,,0.01,0.00,VWS V14.01,2013-10-05 03:45:00,
2013-10-04 21:50:00,31.0,27.6,30.23,North,-999,7.0,10.0,87,0.00,,,0.01,0.00,VWS V14.01,2013-10-05 03:50:00,
2013-10-04 21:55:00,31.0,27.6,30.23,North,-999,6.0,10.0,87,0.00,,,0.01,0.00,VWS V14.01,2013-10-05 03:55:00,
2013-10-04 22:00:00,30.9,27.5,30.23,North,-999,4.0,9.0,87,0.00,,,0.01,0.00,VWS V14.01,2013-10-05 04:00:00,
2013-10-04 22:01:00,30.9,27.5,30.23,North,-999,5.0,9.0,87,0.00,,,0.01,0.00,VWS V14.01,2013-10-05 04:01:00,
2013-10-04 22:02:00,30.8,27.4,30.23,North,-999,6.0,9.0,87,0.00,,,0.01,0.00,VWS V14.01,2013-10-05 04:02:00,
2013-10-04 22:07:00,30.8,27.7,30.24,North,-999,6.0,6.0,88,0.00,,,0.01,0.00,VWS V14.01,2013-10-05 04:07:00,
2013-10-04 22:12:00,30.9,27.8,30.23,North,-999,6.0,7.0,88,0.00,,,0.01,0.00,VWS V14.01,2013-10-05 04:12:00,
2013-10-04 22:17:00,31.1,27.7,30.23,North,-999,6.0,6.0,87,0.00,,,0.01,0.00,VWS V14.01,2013-10-05 04:17:00,
2013-10-04 22:22:00,31.2,27.8,30.23,North,-999,5.0,7.0,87,0.00,,,0.01,0.00,VWS V14.01,2013-10-05 04:22:00,
2013-10-04 22:27:00,31.0,27.6,30.23,North,-999,5.0,5.0,87,0.00,,,0.01,0.00,VWS V14.01,2013-10-05 04:27:00,
2013-10-04 22:32:00,29.9,26.5,30.23,North,-999,6.0,9.0,87,0.00,,,0.01,0.00,VWS V14.01,2013-10-05 04:32:00,
2013-10-04 22:37:00,28.6,25.5,30.23,North,-999,6.0,6.0,88,0.00,,,0.01,0.00,VWS V14.01,2013-10-05 04:37:00,
2013-10-04 22:42:00,27.8,25.0,30.22,North,-999,6.0,7.0,89,0.00,,,0.01,0.00,VWS V14.01,2013-10-05 04:42:00,
2013-10-04 22:47:00,28.1,25.5,30.22,North,-999,5.0,5.0,90,0.00,,,0.01,0.00,VWS V14.01,2013-10-05 04:47:00,
2013-10-04 22:52:00,28.4,25.9,30.22,North,-999,6.0,7.0,90,0.00,,,0.01,0.00,VWS V14.01,2013-10-05 04:52:00,
2013-10-04 22:57:00,29.1,26.5,30.22,North,-999,10.0,10.0,90,0.00,,,0.01,0.00,VWS V14.01,2013-10-05 04:57:00,
2013-10-04 23:02:00,29.4,26.3,30.22,North,-999,10.0,13.0,88,0.00,,,0.01,0.00,VWS V14.01,2013-10-05 05:02:00,
2013-10-04 23:07:00,29.4,26.0,30.21,North,-999,11.0,12.0,87,0.00,,,0.01,0.00,VWS V14.01,2013-10-05 05:07:00,
2013-10-04 23:12:00,29.2,25.5,30.21,North,-999,11.0,13.0,86,0.00,,,0.01,0.00,VWS V14.01,2013-10-05 05:12:00,
2013-10-04 23:17:00,28.9,25.5,30.21,North,-999,9.0,10.0,87,0.00,,,0.01,0.00,VWS V14.01,2013-10-05 05:17:00,
2013-10-04 23:22:00,28.6,25.2,30.21,North,-999,6.0,12.0,87,0.00,,,0.01,0.00,VWS V14.01,2013-10-05 05:22:00,
2013-10-04 23:27:00,28.4,25.0,30.21,North,-999,11.0,11.0,87,0.00,,,0.01,0.00,VWS V14.01,2013-10-05 05:27:00,
2013-10-04 23:32:00,28.1,24.7,30.21,North,-999,9.0,12.0,87,0.00,,,0.01,0.00,VWS V14.01,2013-10-05 05:32:00,
2013-10-04 23:37:00,27.8,24.7,30.21,North,-999,9.0,9.0,88,0.00,,,0.01,0.00,VWS V14.01,2013-10-05 05:37:00,
2013-10-04 23:42:00,27.6,24.5,30.20,North,-999,12.0,12.0,88,0.00,,,0.01,0.00,VWS V14.01,2013-10-05 05:42:00,
2013-10-04 23:47:00,27.4,24.0,30.20,North,-999,11.0,13.0,87,0.00,,,0.01,0.00,VWS V14.01,2013-10-05 05:47:00,
2013-10-04 23:52:00,27.4,24.3,30.20,North,-999,8.0,12.0,88,0.00,,,0.01,0.00,VWS V14.01,2013-10-05 05:52:00,
2013-10-04 23:57:00,27.5,24.4,30.20,North,-999,10.0,12.0,88,0.00,,,0.00,0.00,VWS V14.01,2013-10-05 05:57:00,